Date,TemperatureHighF,TemperatureAvgF,TemperatureLowF,DewpointHighF,DewpointAvgF,DewpointLowF,HumidityHigh,HumidityAvg,HumidityLow,PressureMaxIn,PressureMinIn,WindSpeedMaxMPH,WindSpeedAvgMPH,GustSpeedMaxMPH,PrecipitationSumIn
2012-1-13,52,50,48,39,38,36,71,63,55,30.24,30.17,5,1,7,0.00
2012-1-14,61,48,36,41,32,24,93,57,25,30.37,30.23,6,2,11,0.00
2012-1-15,70,48,30,47,36,28,96,69,27,30.46,30.34,8,1,11,0.00
2012-1-16,73,54,36,52,45,34,96,76,47,30.46,30.33,13,2,15,0.00
2012-1-17,80,59,42,59,50,40,97,77,43,30.34,30.15,7,1,9,0.00
2012-1-18,78,61,47,62,56,46,97,83,51,30.17,29.96,8,2,10,0.12
2012-1-19,72,57,42,62,45,31,94,69,22,30.19,30.03,8,2,11,0.00
2012-1-20,78,58,39,57,47,37,97,73,37,30.21,30.11,4,0,9,0.00
2012-1-21,80,61,45,60,52,43,97,74,41,30.16,30.02,5,1,12,0.00
2012-1-22,79,61,44,63,52,43,96,76,41,30.15,30.06,4,0,7,0.00
2012-1-23,83,66,52,67,59,50,97,80,49,30.15,30.04,5,0,7,0.00
2012-1-24,83,68,53,67,61,52,97,80,44,30.17,30.08,4,0,7,0.00
2012-1-25,84,69,55,67,60,54,97,76,42,30.18,30.07,5,0,8,0.00
2012-1-26,84,70,57,67,61,55,97,77,47,30.11,29.95,11,1,13,0.00
2012-1-27,72,67,60,68,64,57,96,89,78,30.07,29.94,14,3,16,0.16
2012-1-28,73,60,48,57,53,47,97,80,52,30.19,30.06,8,1,13,0.00
2012-1-29,75,61,52,56,51,42,96,73,31,30.31,30.18,10,2,12,0.00
2012-1-30,75,60,48,53,49,45,91,71,39,30.37,30.27,12,3,19,0.00
2012-1-31,78,62,46,58,53,44,97,74,43,30.35,30.23,7,2,16,0.00
2012-2-1,80,65,48,62,56,46,97,75,43,30.27,30.12,5,1,9,0.00
2012-2-2,82,68,54,67,60,52,97,78,50,30.18,30.07,6,1,9,0.00
2012-2-3,72,65,60,62,61,58,95,86,72,30.22,30.14,8,2,11,0.00
2012-2-4,82,70,62,66,62,60,94,77,49,30.19,30.05,8,1,14,0.00
2012-2-5,82,70,60,68,63,59,97,80,53,30.08,29.97,4,0,7,0.00
2012-2-6,82,69,62,70,65,60,97,88,58,30.09,29.99,6,1,10,0.00
2012-2-7,74,67,64,68,65,62,97,92,81,30.07,29.98,8,2,13,0.06
2012-2-8,79,66,58,62,57,51,96,77,46,30.10,30.00,5,2,10,0.00
2012-2-9,74,63,48,61,55,46,96,78,60,30.16,30.06,9,2,14,0.00
2012-2-10,81,68,55,69,62,53,97,83,61,30.12,29.88,4,1,8,0.40
2012-2-11,68,60,50,62,51,33,95,75,50,30.13,29.87,12,3,18,0.04
2012-2-12,54,44,34,34,26,20,88,52,30,30.36,30.14,13,4,16,0.00
2012-2-13,68,50,32,50,39,28,93,68,42,30.30,30.11,8,1,10,0.00
2012-2-14,79,63,45,58,53,43,97,73,46,30.14,30.03,9,2,14,0.00
2012-2-15,83,66,52,63,57,50,97,76,45,30.20,30.10,5,1,8,0.00
2012-2-16,84,69,60,66,61,57,94,78,47,30.17,30.05,7,1,11,0.00
2012-2-17,79,67,58,68,64,56,97,90,64,30.07,29.99,6,1,9,0.03
2012-2-18,78,69,62,68,65,60,98,88,69,30.02,29.88,6,1,7,0.00
2012-2-19,82,71,63,74,66,57,97,85,67,29.93,29.78,20,5,23,0.01
2012-2-20,72,60,51,56,52,48,94,74,44,30.21,29.92,11,3,14,0.00
2012-2-21,78,65,46,57,53,46,97,69,41,30.23,30.10,4,1,8,0.00
2012-2-22,82,70,59,65,61,55,91,74,53,30.11,29.90,8,2,14,0.00
2012-2-23,85,73,66,69,65,62,97,80,48,29.97,29.88,12,3,16,0.00
2012-2-24,88,75,66,70,65,62,97,76,45,30.01,29.92,12,4,20,0.00
2012-2-25,73,66,58,69,50,38,97,60,33,30.24,29.99,11,4,16,0.00
2012-2-26,71,65,58,64,55,43,91,71,55,30.30,30.22,11,4,13,0.00
2012-2-27,86,73,65,70,66,63,97,82,55,30.29,30.17,7,1,19,1.33
2012-2-28,83,71,64,70,66,63,98,85,55,30.28,30.17,7,2,11,0.00
2012-2-29,87,74,63,70,66,61,98,78,48,30.22,30.06,5,1,8,0.00
2012-3-1,87,73,63,70,66,60,96,79,47,30.10,29.97,8,1,11,0.00
2012-3-2,86,72,61,70,64,59,98,77,41,30.05,29.93,8,2,13,0.00
2012-3-3,88,74,64,72,66,59,97,79,42,29.94,29.80,10,3,20,0.00
2012-3-4,76,63,42,71,47,28,94,62,25,30.22,29.70,13,4,23,0.02
2012-3-5,76,56,36,47,38,31,96,60,20,30.36,30.22,6,1,11,0.00
2012-3-6,78,59,42,57,50,40,97,76,45,30.39,30.31,13,2,21,0.00
2012-3-7,82,68,57,62,58,54,92,74,42,30.38,30.27,10,3,13,0.00
2012-3-8,85,71,60,68,64,59,98,81,50,30.29,30.15,6,1,11,0.00
2012-3-9,84,73,61,69,66,59,97,80,54,30.20,30.06,7,1,13,0.00
2012-3-10,85,72,64,68,66,62,97,82,52,30.21,30.09,13,4,17,0.00
2012-3-11,80,70,66,69,66,64,96,90,63,30.28,30.18,8,2,17,1.00
2012-3-12,82,70,60,65,62,58,97,77,50,30.29,30.19,9,2,13,0.00
2012-3-13,82,69,55,64,60,54,97,75,50,30.25,30.14,6,1,14,0.00
2012-3-14,85,70,55,66,60,54,97,74,46,30.23,30.13,11,2,13,0.00
2012-3-15,84,71,57,68,62,55,97,76,48,30.25,30.13,9,2,14,0.00
2012-3-16,85,71,57,67,61,56,97,74,41,30.23,30.11,7,1,12,0.00
2012-3-17,84,70,54,66,58,53,97,71,39,30.23,30.12,10,2,14,0.00
2012-3-18,85,69,53,66,58,51,97,72,40,30.24,30.12,10,2,15,0.00
2012-3-19,85,69,52,66,58,51,97,72,41,30.18,30.06,8,1,13,0.00
2012-3-20,83,71,56,66,61,55,97,73,49,30.11,30.02,5,1,11,0.00
2012-3-21,85,73,62,70,66,60,97,79,56,30.14,30.03,6,1,13,0.00
2012-3-22,89,75,63,69,65,61,96,74,43,30.16,30.03,4,1,10,0.00
2012-3-23,88,76,60,68,64,58,97,70,40,30.12,29.98,4,1,8,0.00
2012-3-24,85,72,63,70,65,61,96,79,51,30.03,29.89,7,2,14,0.23
2012-3-25,84,73,62,69,61,50,95,70,34,29.93,29.80,14,3,15,0.06
2012-3-26,84,69,54,62,55,51,97,66,33,30.02,29.89,9,2,13,0.00
2012-3-27,87,67,51,65,56,49,97,71,29,30.18,30.01,9,2,13,0.00
2012-3-28,84,70,56,64,60,54,97,72,39,30.18,30.04,7,1,9,0.00
2012-3-29,86,71,56,65,60,54,97,72,37,30.08,29.95,5,1,8,0.00
2012-3-30,86,71,57,65,60,55,96,71,40,30.06,29.95,4,1,8,0.00
2012-3-31,85,71,62,69,65,60,95,82,51,30.00,29.87,13,2,15,0.07
2012-4-1,88,74,62,68,63,57,97,72,36,29.94,29.83,6,1,12,0.00
2012-4-2,89,73,58,69,62,56,97,72,35,29.93,29.83,7,1,9,0.00
2012-4-3,92,75,58,70,60,53,97,67,28,29.97,29.87,6,1,11,0.00
2012-4-4,91,75,58,69,63,57,96,70,36,29.97,29.78,10,2,16,0.00
2012-4-5,86,74,66,70,65,61,96,75,45,29.86,29.73,9,2,15,0.37
2012-4-6,86,72,63,70,62,50,96,73,34,29.96,29.73,10,3,18,0.00
2012-4-7,81,69,59,61,57,53,89,67,45,30.15,29.96,10,4,17,0.00
2012-4-8,81,68,52,59,55,49,96,67,39,30.18,30.05,10,1,11,0.00
2012-4-9,83,67,52,62,56,50,96,70,36,30.10,29.97,4,1,9,0.00
2012-4-10,85,70,54,64,58,52,96,69,37,30.08,29.94,7,1,10,0.00
2012-4-11,86,72,57,67,58,52,96,66,35,30.05,29.93,7,2,12,0.00
2012-4-12,84,70,59,61,56,46,94,65,27,30.07,29.97,8,2,12,0.00
2012-4-13,86,72,60,67,61,55,96,70,37,30.13,30.00,6,2,11,0.00
2012-4-14,78,71,65,66,63,61,93,77,60,30.22,30.10,7,2,13,0.00
2012-4-15,83,72,62,62,60,57,87,67,42,30.22,30.14,7,1,11,0.00
2012-4-16,86,72,60,67,60,55,96,69,38,30.21,30.11,5,1,10,0.00
2012-4-17,86,73,57,64,61,55,96,69,42,30.17,30.03,4,1,8,0.00
2012-4-18,86,74,60,66,62,58,96,69,44,30.10,29.92,8,1,13,0.00
2012-4-19,85,73,65,70,66,61,96,81,55,29.98,29.87,7,1,13,0.01
2012-4-20,87,72,66,73,67,64,97,87,56,29.92,29.82,5,1,11,0.50
2012-4-21,80,70,64,70,66,62,96,88,65,29.86,29.61,10,1,18,0.20
2012-4-22,81,69,59,67,62,58,97,81,56,29.74,29.52,9,3,16,0.59
2012-4-23,75,64,53,59,48,44,84,60,35,29.91,29.74,17,3,20,0.00
2012-4-24,74,61,46,49,40,31,88,52,23,30.04,29.91,8,2,17,0.00
2012-4-25,82,62,42,56,47,39,96,64,30,30.12,30.02,6,1,11,0.00
2012-4-26,79,62,49,63,55,47,96,80,47,30.15,30.05,5,0,10,0.00
2012-4-27,88,72,53,65,59,51,97,68,32,30.13,30.01,4,0,7,0.00
2012-4-28,88,75,61,72,66,59,97,76,52,30.09,29.99,9,1,10,0.00
2012-4-29,86,75,66,72,68,64,97,82,55,30.09,30.01,12,2,14,0.03
2012-4-30,86,76,66,71,67,64,97,76,49,30.09,30.02,10,3,19,0.00
2012-5-1,88,78,69,71,67,63,94,72,48,30.08,29.98,7,2,17,0.00
2012-5-2,89,78,68,72,68,66,96,75,49,30.09,30.00,8,2,12,0.00
2012-5-3,90,78,67,71,68,63,96,73,42,30.10,30.00,6,1,13,0.00
2012-5-4,87,76,63,72,66,61,97,75,51,30.10,29.97,3,0,7,0.00
2012-5-5,92,78,62,70,65,59,96,69,37,30.02,29.89,6,1,8,0.00
2012-5-6,91,78,66,73,68,63,97,73,41,29.98,29.85,8,2,13,0.00
2012-5-7,92,76,63,71,66,61,97,76,41,29.92,29.81,8,2,16,0.43
2012-5-8,89,73,65,72,67,63,97,83,43,29.91,29.81,8,1,9,0.02
2012-5-9,91,77,67,73,69,66,97,78,47,29.88,29.75,11,2,17,0.15
2012-5-10,88,77,68,72,68,61,96,75,47,29.92,29.77,7,1,12,0.00
2012-5-11,88,76,64,69,64,59,97,70,48,30.12,29.90,13,2,17,0.00
2012-5-12,88,75,60,70,64,58,96,70,46,30.17,30.08,10,2,15,0.00
2012-5-13,87,75,60,69,65,58,94,72,52,30.13,30.00,8,1,9,0.00
2012-5-14,89,76,70,72,69,65,93,78,50,30.06,29.91,13,1,20,0.19
2012-5-15,90,76,69,72,70,67,96,81,49,30.02,29.90,8,1,10,0.16
2012-5-16,81,72,67,74,69,66,96,91,71,30.02,29.92,5,1,8,0.84
2012-5-17,88,76,69,73,69,67,97,80,55,29.96,29.82,6,1,9,0.00
2012-5-18,90,76,66,72,67,64,96,76,44,29.93,29.84,9,1,13,0.06
2012-5-19,90,77,68,73,68,63,97,77,44,30.00,29.87,10,3,13,0.00
2012-5-20,89,77,66,70,64,48,95,68,29,29.99,29.89,8,2,10,0.00
2012-5-21,89,76,59,67,59,50,97,62,29,29.99,29.88,5,1,10,0.00
2012-5-22,93,76,61,71,60,48,97,65,22,29.97,29.84,5,1,11,0.00
2012-5-23,92,79,66,71,68,63,96,71,39,29.92,29.81,11,1,11,0.00
2012-5-24,92,79,68,74,70,66,97,77,49,29.91,29.82,9,2,17,0.00
2012-5-25,92,80,68,74,70,66,97,75,50,30.04,29.90,9,2,13,0.00
2012-5-26,93,80,66,74,67,63,97,69,37,30.05,29.93,11,2,16,0.00
2012-5-27,90,77,68,76,70,64,94,79,53,29.97,29.78,9,2,18,0.48
2012-5-28,91,81,71,76,71,67,95,74,52,29.92,29.83,11,4,20,0.08
2012-5-29,89,78,71,75,71,69,96,81,56,29.95,29.85,9,2,14,0.00
2012-5-30,92,82,74,76,74,71,95,76,50,29.90,29.79,9,4,15,0.00
2012-5-31,92,80,69,76,71,66,97,75,45,29.93,29.82,7,2,14,0.00
2012-6-1,79,73,69,74,71,68,97,91,77,29.94,29.84,4,0,7,2.58
2012-6-2,90,79,70,75,72,69,98,80,55,29.97,29.87,9,3,14,0.01
2012-6-3,90,79,65,73,68,63,97,73,47,30.04,29.93,7,1,8,0.00
2012-6-4,89,79,65,74,70,63,97,75,51,29.99,29.83,10,2,15,0.00
2012-6-5,85,78,73,77,74,70,96,87,63,29.89,29.78,9,2,14,0.21
2012-6-6,86,76,71,77,71,68,94,85,71,29.92,29.83,10,2,19,0.00
2012-6-7,80,75,71,78,73,70,97,95,84,29.99,29.89,5,0,14,0.86
2012-6-8,87,75,72,77,73,71,98,92,71,29.98,29.88,4,1,12,0.10
2012-6-9,91,78,72,78,73,70,97,85,58,30.03,29.89,6,1,15,0.03
2012-6-10,94,80,71,80,74,70,98,83,53,30.15,29.97,6,1,19,0.02
2012-6-11,92,80,68,78,73,68,98,81,57,30.12,30.03,5,1,10,0.01
2012-6-12,92,78,69,75,71,68,96,80,51,30.09,29.91,8,1,17,0.22
2012-6-13,92,80,70,78,72,69,97,79,52,29.98,29.84,6,1,10,0.01
2012-6-14,92,78,71,77,72,69,97,83,56,29.99,29.87,18,2,23,0.04
2012-6-15,89,78,68,76,70,63,98,80,47,30.03,29.93,14,3,18,0.01
2012-6-16,89,79,71,73,69,64,96,73,45,30.04,29.97,11,4,19,0.00
2012-6-17,88,78,66,71,66,64,97,71,45,30.05,29.93,9,2,16,0.00
2012-6-18,90,77,63,71,66,61,97,70,46,30.05,29.96,7,2,13,0.00
2012-6-19,88,76,64,71,67,62,96,74,49,30.06,30.00,8,2,15,0.00
2012-6-20,84,76,71,79,72,68,96,89,75,30.03,29.95,8,2,15,0.32
2012-6-21,88,78,73,77,74,72,97,90,65,29.99,29.87,5,1,9,0.30
2012-6-22,89,78,74,78,74,72,97,90,63,29.92,29.83,4,1,9,1.64
2012-6-23,81,77,73,77,75,72,97,93,84,29.96,29.85,1,0,5,0.08
2012-6-24,78,75,73,77,74,71,97,96,93,29.95,29.74,18,1,29,1.73
2012-6-25,80,78,74,76,75,73,96,91,81,29.77,29.66,17,4,21,0.78
2012-6-26,83,78,75,78,76,72,96,91,80,29.67,29.60,17,5,29,1.16
2012-6-27,88,79,73,77,74,70,95,85,63,30.00,29.62,13,4,26,0.89
2012-6-28,90,78,67,71,67,63,97,71,44,30.07,29.99,7,1,12,0.00
2012-6-29,91,80,66,76,70,65,97,74,49,30.04,29.91,5,1,8,0.00
2012-6-30,92,80,68,75,70,67,97,75,53,30.00,29.92,8,2,11,0.00
2012-7-1,93,80,67,77,71,65,98,75,48,30.07,29.97,7,1,12,0.00
2012-7-2,94,82,71,76,73,69,97,76,47,30.09,29.96,6,1,11,0.23
2012-7-3,92,78,70,76,72,69,97,83,52,30.07,29.96,5,0,10,0.09
2012-7-4,93,81,72,76,72,69,97,78,46,30.07,30.00,10,1,14,0.00
2012-7-5,93,81,70,75,71,68,96,75,46,30.06,29.95,4,1,9,0.00
2012-7-6,93,81,70,75,72,67,97,75,44,30.05,29.96,5,1,9,0.00
2012-7-7,94,83,70,77,72,65,97,73,39,30.07,30.01,4,0,8,0.00
2012-7-8,96,84,72,77,73,70,96,72,44,30.09,29.97,6,1,10,0.00
2012-7-9,96,83,72,76,73,70,96,74,43,30.03,29.93,8,1,13,0.00
2012-7-10,92,80,72,77,73,70,97,80,53,30.04,29.94,7,1,12,0.63
2012-7-11,87,78,71,78,74,70,98,88,68,30.04,29.93,4,0,7,0.01
2012-7-12,89,79,72,76,73,71,97,82,60,30.02,29.92,5,1,9,0.00
2012-7-13,90,81,75,79,75,72,96,83,61,30.06,29.96,7,1,10,0.06
2012-7-14,90,81,74,79,74,72,96,80,59,30.09,29.99,7,1,12,0.10
2012-7-15,91,79,72,77,73,70,97,85,55,30.10,30.01,5,1,9,0.01
2012-7-16,86,76,71,78,73,70,97,90,71,30.07,29.95,5,0,13,0.36
2012-7-17,86,77,72,78,73,71,97,89,72,30.03,29.95,7,1,13,0.23
2012-7-18,87,77,71,78,74,70,97,89,69,30.11,29.98,5,1,9,0.08
2012-7-19,93,80,72,80,74,66,97,84,54,30.16,30.07,7,1,15,0.04
2012-7-20,94,83,71,78,74,70,97,77,49,30.11,30.01,5,0,7,0.00
2012-7-21,95,83,75,79,75,71,96,78,46,30.10,30.00,10,1,10,0.04
2012-7-22,90,78,73,80,75,70,97,92,67,30.15,30.03,12,1,19,0.50
2012-7-23,89,76,72,80,74,70,98,93,70,30.15,30.07,3,0,7,0.64
2012-7-24,90,79,72,81,75,71,97,89,65,30.14,30.01,16,1,19,0.16
2012-7-25,92,82,74,79,76,72,98,82,60,30.03,29.96,9,2,13,0.00
2012-7-26,93,83,73,78,75,72,97,78,54,30.03,29.95,8,2,10,0.00
2012-7-27,95,82,72,78,74,70,97,79,46,30.08,29.98,7,1,15,0.00
2012-7-28,94,82,73,78,74,70,96,77,46,30.10,29.99,10,1,14,0.00
2012-7-29,94,82,73,78,74,71,97,79,51,30.07,29.96,8,1,12,0.00
2012-7-30,94,81,73,78,74,72,97,79,50,30.04,29.97,9,2,17,0.00
2012-7-31,93,82,71,77,73,69,96,76,47,30.03,29.94,8,2,15,0.00
2012-8-1,91,80,72,78,74,71,97,82,57,30.00,29.92,10,1,15,0.00
2012-8-2,94,82,72,78,73,71,97,76,47,30.00,29.89,6,1,11,0.00
2012-8-3,93,79,71,78,72,69,96,81,53,30.02,29.92,8,1,19,0.05
2012-8-4,93,81,72,78,74,70,97,80,49,30.03,29.94,8,2,11,0.00
2012-8-5,93,82,74,78,75,72,96,81,57,30.09,30.00,5,1,10,0.00
2012-8-6,92,81,75,79,75,72,96,84,60,30.09,29.95,12,1,14,0.03
2012-8-7,94,81,72,80,74,69,97,81,48,30.02,29.94,4,1,10,0.00
2012-8-8,94,84,76,78,74,70,94,75,46,30.04,29.95,7,1,11,0.00
2012-8-9,95,81,70,78,73,68,96,77,49,30.02,29.89,5,1,10,0.28
2012-8-10,93,79,73,77,74,71,96,85,54,29.98,29.90,5,0,9,0.80
2012-8-11,89,80,74,77,75,72,97,85,61,30.02,29.91,5,1,9,0.01
2012-8-12,90,77,72,79,74,71,96,91,65,30.04,29.96,4,0,8,0.08
2012-8-13,91,81,72,78,75,71,97,83,57,30.07,29.98,5,1,8,0.01
2012-8-14,94,79,72,78,74,70,97,85,57,30.04,29.95,5,0,16,0.14
2012-8-15,92,81,72,78,74,71,98,81,57,30.04,29.95,5,1,7,0.00
2012-8-16,92,80,72,79,75,71,97,84,62,30.07,29.97,5,1,11,0.07
2012-8-17,91,80,73,80,75,71,97,86,56,30.04,29.92,7,1,9,0.04
2012-8-18,87,78,75,78,74,71,97,88,66,29.99,29.89,10,1,12,0.01
2012-8-19,93,82,73,79,75,72,96,81,54,29.99,29.89,8,2,16,0.03
2012-8-20,95,83,75,79,75,72,96,78,49,30.02,29.86,9,2,16,0.03
2012-8-21,93,79,71,79,73,70,96,84,52,30.10,29.95,9,2,15,0.43
2012-8-22,90,75,71,77,72,70,97,91,60,30.09,29.98,8,1,16,0.26
2012-8-23,91,80,70,75,72,69,98,79,52,30.09,30.00,7,1,7,0.01
2012-8-24,92,80,72,77,73,70,97,81,54,30.05,29.93,10,2,15,0.00
2012-8-25,88,78,70,77,71,67,95,80,52,30.01,29.92,10,3,16,0.00
2012-8-26,84,78,75,78,76,73,97,91,80,29.97,29.81,13,6,21,0.65
2012-8-27,82,78,74,79,76,74,98,93,86,29.89,29.75,9,2,20,2.57
2012-8-28,88,80,76,80,77,74,95,90,73,29.98,29.87,6,1,18,0.24
2012-8-29,90,80,74,78,76,73,97,87,63,29.99,29.90,7,1,10,0.14
2012-8-30,91,82,72,80,76,72,98,83,57,30.10,29.95,2,0,5,0.01
2012-8-31,92,82,74,79,76,72,98,81,59,30.16,30.07,8,1,17,0.00
2012-9-1,91,82,73,79,74,71,98,78,53,30.14,30.03,10,2,12,0.00
2012-9-2,90,79,67,73,69,64,97,75,45,30.07,29.96,9,2,15,0.00
2012-9-3,90,79,67,75,71,65,97,77,50,30.05,29.95,3,0,9,0.00
2012-9-4,92,80,69,77,72,67,97,77,48,30.02,29.90,7,1,9,0.00
2012-9-5,92,78,70,77,72,68,97,84,55,29.98,29.90,11,1,15,0.00
2012-9-6,92,77,70,77,72,69,97,86,56,30.02,29.93,11,1,17,0.02
2012-9-7,92,79,69,77,72,68,98,83,53,29.99,29.88,9,1,13,0.01
2012-9-8,92,81,70,77,72,69,97,78,49,29.96,29.85,9,2,15,0.01
2012-9-9,82,77,75,78,75,73,96,92,84,29.95,29.86,8,2,13,0.66
2012-9-10,88,77,73,80,75,70,98,92,70,30.02,29.91,8,1,13,0.23
2012-9-11,87,78,73,77,73,69,98,84,66,30.12,29.99,10,2,17,0.02
2012-9-12,86,78,71,76,72,68,96,84,67,30.11,30.04,10,3,17,0.01
2012-9-13,89,78,73,76,73,71,95,83,62,30.09,30.00,9,2,16,0.00
2012-9-14,86,77,73,77,74,72,97,91,70,30.05,29.97,10,2,15,0.69
2012-9-15,88,77,72,79,73,70,98,88,67,30.06,29.99,11,1,14,0.02
2012-9-16,88,78,72,77,74,71,98,87,68,30.05,29.96,5,0,9,0.01
2012-9-17,91,78,71,78,73,70,97,85,57,30.01,29.88,6,0,12,0.01
2012-9-18,87,76,73,78,74,72,97,92,73,29.95,29.87,10,2,13,0.22
2012-9-19,89,78,72,78,74,71,98,87,65,30.04,29.90,8,1,12,0.00
2012-9-20,88,78,72,77,73,71,97,86,61,30.03,29.91,4,0,7,0.14
2012-9-21,87,76,71,77,72,70,98,89,66,30.01,29.90,6,1,14,0.40
2012-9-22,85,77,72,77,74,71,98,90,70,30.02,29.93,8,1,10,0.03
2012-9-23,90,78,70,76,71,68,98,81,50,30.07,29.98,5,1,11,0.00
2012-9-24,84,75,68,70,66,56,96,75,40,30.10,30.00,6,1,12,0.00
2012-9-25,85,74,66,72,67,63,95,81,51,30.09,30.02,5,1,7,0.00
2012-9-26,89,75,65,76,71,64,98,88,62,30.10,30.02,3,0,6,0.01
2012-9-27,91,79,70,76,72,69,98,81,53,30.11,29.99,7,2,11,0.00
2012-9-28,90,78,70,76,73,69,98,83,54,30.05,29.91,7,1,14,0.01
2012-9-29,91,79,70,77,73,68,98,84,53,29.98,29.83,10,1,10,0.00
2012-9-30,91,79,70,77,73,68,97,83,59,29.90,29.75,5,1,10,0.00
2012-10-1,90,80,72,79,75,70,97,85,64,29.82,29.71,8,1,13,0.07
2012-10-2,85,76,72,78,74,71,97,92,74,30.03,29.81,6,1,12,0.72
2012-10-3,90,77,72,80,74,71,98,91,63,30.16,30.02,7,1,14,0.74
2012-10-4,89,77,72,81,74,71,98,93,73,30.17,30.06,5,1,9,0.21
2012-10-5,91,77,71,80,74,70,98,91,63,30.12,29.92,9,1,15,1.44
2012-10-6,89,78,72,78,74,70,99,89,59,29.99,29.84,6,1,13,0.04
2012-10-7,89,77,70,77,72,69,98,87,58,29.98,29.89,5,1,9,0.01
2012-10-8,86,76,71,79,74,70,98,91,71,30.02,29.91,5,0,12,0.21
2012-10-9,87,77,69,77,73,68,98,87,66,30.05,29.96,5,1,10,0.01
2012-10-10,86,75,68,74,69,65,96,83,59,30.10,30.01,7,2,14,0.00
2012-10-11,85,72,62,70,66,61,98,82,57,30.15,30.07,9,2,12,0.00
2012-10-12,85,73,65,70,64,61,95,76,50,30.16,30.08,9,3,15,0.00
2012-10-13,85,75,65,69,67,63,96,77,54,30.16,30.07,13,3,19,0.01
2012-10-14,88,77,68,73,70,66,96,80,58,30.10,29.97,8,2,13,0.00
2012-10-15,88,78,70,77,73,68,96,85,57,29.97,29.80,6,1,11,0.01
2012-10-16,86,75,66,72,69,65,98,82,59,29.86,29.76,7,1,9,0.00
2012-10-17,82,73,64,75,69,62,97,88,72,29.88,29.79,3,0,6,0.01
2012-10-18,88,76,68,76,71,67,98,86,62,29.89,29.77,5,0,13,0.26
2012-10-19,88,76,66,74,69,65,98,81,49,29.87,29.79,4,0,8,0.01
2012-10-20,84,74,61,71,62,54,97,70,44,29.96,29.83,6,1,11,0.00
2012-10-21,83,68,55,61,57,53,95,71,40,30.04,29.94,9,2,11,0.00
2012-10-22,85,72,62,68,64,60,94,75,51,30.07,29.97,9,2,17,0.00
2012-10-23,82,72,63,69,65,61,96,80,63,30.04,29.95,15,2,18,0.00
2012-10-24,87,75,65,73,68,63,96,81,53,30.00,29.89,12,3,17,0.00
2012-10-25,82,75,71,74,71,68,96,88,71,29.91,29.78,13,3,18,0.20
2012-10-26,84,76,70,72,68,65,96,79,54,29.77,29.58,15,6,24,0.04
2012-10-27,75,70,66,65,63,61,87,77,68,29.69,29.54,11,4,15,0.00
2012-10-28,78,68,62,65,61,54,94,79,55,29.79,29.67,10,3,17,0.00
2012-10-29,70,59,50,54,45,35,86,64,29,29.87,29.75,10,4,18,0.00
2012-10-30,54,49,44,47,38,35,88,68,57,29.92,29.83,3,1,8,0.00
2012-10-31,74,65,55,53,51,48,89,61,45,30.04,29.96,7,2,13,0.00
2012-11-1,78,64,50,64,58,49,98,81,60,30.04,29.93,9,1,12,0.00
2012-11-2,79,63,48,60,52,47,98,73,35,30.09,30.00,5,1,9,0.01
2012-11-3,83,63,47,67,56,45,98,78,43,30.13,30.04,5,0,7,0.00
2012-11-4,82,65,51,66,58,49,98,79,46,30.11,29.98,5,0,8,0.01
2012-11-5,80,67,59,69,61,56,98,83,57,30.00,29.90,5,1,8,0.00
2012-11-6,75,64,56,67,61,54,97,88,72,29.93,29.80,8,1,13,0.04
2012-11-7,69,57,44,56,49,42,96,77,50,29.99,29.84,10,2,14,0.01
2012-11-8,68,55,43,49,44,41,96,71,40,30.16,29.98,11,2,13,0.00
2012-11-9,74,56,40,52,46,38,96,73,38,30.24,30.15,7,1,11,0.00
2012-11-10,76,62,49,58,53,47,95,76,50,30.30,30.21,10,2,13,0.01
2012-11-11,80,66,52,66,60,49,97,81,59,30.28,30.20,8,1,12,0.00
2012-11-12,85,69,57,69,63,55,98,82,53,30.23,30.13,10,1,11,0.01
2012-11-13,80,68,58,69,63,57,98,83,60,30.17,30.08,7,1,8,0.00
2012-11-14,80,68,61,69,64,59,98,89,66,30.16,30.07,9,2,12,0.01
2012-11-15,73,66,61,66,64,59,98,93,80,30.14,30.06,5,2,11,0.01
2012-11-16,69,62,59,60,58,57,95,88,74,30.16,30.08,7,3,10,0.00
2012-11-17,80,68,60,63,61,58,95,80,55,30.14,30.05,7,3,11,0.00
2012-11-18,75,65,52,63,60,49,95,84,62,30.17,30.09,11,4,15,0.00
2012-11-19,60,56,50,56,54,49,97,92,86,30.16,30.07,7,2,10,0.01
2012-11-20,75,63,53,62,57,51,96,82,60,30.07,29.96,8,2,12,0.00
2012-11-21,73,59,48,58,50,46,97,75,41,30.08,29.97,9,2,16,0.00
2012-11-22,73,56,40,52,44,36,96,69,33,30.18,30.05,10,2,18,0.01
2012-11-23,73,54,40,49,41,36,96,68,26,30.20,30.07,7,1,11,0.00
2012-11-24,76,56,40,60,48,38,98,76,50,30.10,29.98,7,1,12,0.00
2012-11-25,72,52,37,48,41,35,97,72,31,30.16,30.07,4,1,7,0.01
2012-11-26,78,59,39,62,52,38,97,79,48,30.22,30.11,5,0,7,0.00
2012-11-27,80,66,54,66,60,53,98,82,54,30.19,30.07,5,0,8,0.00
2012-11-28,74,61,53,62,57,52,98,86,64,30.25,30.11,14,2,14,0.00
2012-11-29,78,63,52,62,56,51,97,81,54,30.25,30.19,10,2,15,0.01
2012-11-30,78,65,54,61,56,51,96,77,49,30.25,30.15,10,2,13,0.00
2012-12-1,79,64,50,63,58,48,97,82,53,30.24,30.16,12,2,17,0.00
2012-12-2,80,68,54,66,61,53,98,82,52,30.26,30.16,10,2,12,0.01
2012-12-3,80,70,60,67,61,58,96,77,46,30.26,30.17,5,1,11,0.00
2012-12-4,79,64,50,62,56,48,98,78,51,30.28,30.18,6,1,11,0.00
2012-12-5,80,66,55,65,60,53,97,81,54,30.18,30.02,7,1,10,0.00
2012-12-6,79,68,60,66,63,58,97,83,61,30.04,29.91,6,1,11,0.00
2012-12-7,78,68,58,68,64,57,98,88,68,30.01,29.91,5,1,7,0.01
2012-12-8,80,71,64,71,67,63,98,88,65,30.05,29.96,3,1,8,0.28
2012-12-9,82,72,64,71,68,62,98,88,64,30.09,29.99,4,0,11,0.14
2012-12-10,83,72,63,75,69,62,98,90,72,30.01,29.84,8,2,15,0.08
2012-12-11,80,72,67,75,70,66,97,94,85,30.02,29.89,5,1,7,0.14
2012-12-12,82,73,67,75,71,66,98,93,76,30.08,29.99,5,1,12,0.06
2012-12-13,72,64,56,71,62,54,98,92,83,30.18,30.03,7,3,15,0.04
2012-12-14,72,62,57,64,59,55,97,89,73,30.21,30.08,9,4,15,0.03
2012-12-15,78,65,55,68,60,54,98,87,60,30.14,30.04,8,1,8,0.02
2012-12-16,79,66,54,68,62,53,98,87,65,30.06,29.94,2,0,7,0.02
2012-12-17,82,69,58,69,64,57,98,85,60,29.97,29.86,9,2,14,0.00
2012-12-18,81,69,54,72,64,52,98,84,56,30.02,29.88,7,2,14,0.01
2012-12-19,77,58,42,58,50,41,98,77,35,30.11,30.01,5,0,8,0.00
2012-12-20,82,67,49,68,60,47,98,81,54,30.09,29.92,7,2,11,0.00
2012-12-21,71,56,42,68,44,34,95,66,36,30.20,29.93,10,3,19,0.00
2012-12-22,64,48,35,40,30,24,90,56,23,30.29,30.19,10,2,14,0.00
2012-12-23,69,49,31,52,41,29,97,77,42,30.27,30.14,3,0,7,0.10
2012-12-24,70,58,46,60,53,44,97,85,62,30.13,29.98,6,1,12,0.04
2012-12-25,76,64,52,63,58,50,98,83,59,30.03,29.89,10,0,10,0.02
2012-12-26,79,66,52,70,61,49,96,86,73,30.00,29.77,12,3,22,0.02
2012-12-27,64,50,39,48,43,37,93,78,45,30.10,29.99,5,1,9,0.00
2012-12-28,74,57,36,65,51,35,97,83,55,30.09,29.93,4,0,7,0.01
2012-12-29,77,68,52,72,64,49,97,89,67,30.13,29.87,10,4,20,0.01
2012-12-30,56,49,39,49,42,35,92,78,61,30.34,30.14,12,4,14,0.00
2012-12-31,76,58,44,60,52,42,96,82,55,30.33,30.18,6,1,7,0.00
2013-1-1,77,62,48,63,56,46,97,83,58,30.20,30.04,5,1,9,0.00